| time (UTC) | temp F | wind direction | speed MPH | gust MPH | rain 1hr in | rain 24hr in | rain mn in | humidity % | barometer mb |
| 20260504151022 | 71 | 251 | 0.0 | 0.0 | 0.00 | 0.00 | 0.00 | 48 | 1019.3 |
| 20260504150519 | 70 | 252 | 1.0 | 1.0 | 0.00 | 0.00 | 0.00 | 51 | 1019.1 |
| 20260504140945 | 68 | 255 | 3.0 | 3.0 | 0.00 | 0.00 | 0.00 | 54 | 1019.7 |
| 20260504140442 | 67 | 247 | 1.0 | 1.0 | 0.00 | 0.00 | 0.00 | 56 | 1019.7 |
| 20260504130406 | 59 | 258 | 1.0 | 1.0 | 0.00 | 0.00 | 0.00 | 81 | 1019.7 |
| 20260504110254 | 42 | 258 | 0.0 | 0.0 | 0.00 | 0.00 | 0.00 | 99 | 1019.0 |
| 20260504100217 | 42 | 256 | 0.0 | 0.0 | 0.00 | 0.00 | 0.00 | 99 | 1018.7 |
| 20260504090139 | 43 | 253 | 0.0 | 0.0 | 0.00 | 0.00 | 0.00 | 99 | 1018.9 |
| 20260504081610 | 44 | 256 | 0.0 | 0.0 | 0.00 | 0.00 | 0.00 | 99 | 1018.8 |
| 20260504081105 | 44 | 256 | 0.0 | 0.0 | 0.00 | 0.00 | 0.00 | 99 | 1018.8 |
| 20260504080603 | 44 | 251 | 0.0 | 0.0 | 0.00 | 0.00 | 0.00 | 99 | 1018.8 |
| 20260504050415 | 47 | 255 | 0.0 | 0.0 | 0.00 | 0.00 | 0.00 | 94 | 1019.7 |
| 20260504045912 | 47 | 255 | 0.0 | 0.0 | 0.00 | 0.00 | 0.00 | 93 | 1019.8 |
| 20260504045408 | 47 | 254 | 0.0 | 0.0 | 0.00 | 0.00 | 0.00 | 93 | 1019.9 |
| 20260504044904 | 48 | 253 | 0.0 | 0.0 | 0.00 | 0.00 | 0.00 | 92 | 1019.8 |
| 20260504044402 | 48 | 253 | 0.0 | 0.0 | 0.00 | 0.00 | 0.00 | 92 | 1019.9 |
| 20260504043859 | 48 | 253 | 0.0 | 0.0 | 0.00 | 0.00 | 0.00 | 92 | 1019.9 |
| 20260504043356 | 48 | 249 | 0.0 | 0.0 | 0.00 | 0.00 | 0.00 | 91 | 1020.0 |
| 20260504042853 | 48 | 249 | 0.0 | 0.0 | 0.00 | 0.00 | 0.00 | 91 | 1019.8 |
| 20260504042349 | 48 | 250 | 0.0 | 0.0 | 0.00 | 0.00 | 0.00 | 90 | 1019.9 |
| 20260504041846 | 48 | 250 | 0.0 | 0.0 | 0.00 | 0.00 | 0.00 | 90 | 1020.2 |
| 20260504041342 | 48 | 249 | 0.0 | 0.0 | 0.00 | 0.00 | 0.00 | 90 | 1020.2 |
| 20260504040838 | 48 | 249 | 0.0 | 0.0 | 0.00 | 0.00 | 0.00 | 90 | 1020.1 |
| 20260504040336 | 48 | 250 | 0.0 | 0.0 | 0.00 | 0.00 | 0.00 | 89 | 1019.8 |
| 20260504035832 | 49 | 250 | 0.0 | 0.0 | 0.00 | 0.00 | 0.00 | 89 | 1020.0 |
| 20260504035330 | 49 | 250 | 0.0 | 0.0 | 0.00 | 0.00 | 0.00 | 88 | 1019.8 |
| 20260504034827 | 49 | 250 | 0.0 | 0.0 | 0.00 | 0.00 | 0.00 | 87 | 1020.0 |
| 20260504034324 | 50 | 250 | 0.0 | 0.0 | 0.00 | 0.00 | 0.00 | 86 | 1020.0 |
| 20260504033821 | 50 | 249 | 0.0 | 0.0 | 0.00 | 0.00 | 0.00 | 85 | 1019.9 |
| 20260504033319 | 50 | 249 | 0.0 | 0.0 | 0.00 | 0.00 | 0.00 | 84 | 1019.9 |
| 20260504032815 | 50 | 249 | 0.0 | 0.0 | 0.00 | 0.00 | 0.00 | 84 | 1020.1 |
| 20260504032313 | 51 | 249 | 0.0 | 0.0 | 0.00 | 0.00 | 0.00 | 83 | 1019.8 |
| 20260504031809 | 51 | 249 | 0.0 | 0.0 | 0.00 | 0.00 | 0.00 | 82 | 1019.9 |
| 20260504031307 | 51 | 250 | 0.0 | 0.0 | 0.00 | 0.00 | 0.00 | 82 | 1019.9 |
| 20260504030802 | 51 | 250 | 0.0 | 0.0 | 0.00 | 0.00 | 0.00 | 81 | 1019.9 |
| 20260504030300 | 51 | 250 | 0.0 | 0.0 | 0.00 | 0.00 | 0.00 | 80 | 1019.9 |
| 20260504025756 | 51 | 251 | 0.0 | 0.0 | 0.00 | 0.00 | 0.00 | 80 | 1020.2 |
| 20260504025253 | 52 | 250 | 0.0 | 0.0 | 0.00 | 0.00 | 0.00 | 78 | 1020.1 |
| 20260504024749 | 52 | 251 | 0.0 | 0.0 | 0.00 | 0.00 | 0.00 | 78 | 1019.9 |
| 20260504024246 | 52 | 251 | 0.0 | 0.0 | 0.00 | 0.00 | 0.00 | 77 | 1020.0 |
| 20260504023743 | 52 | 250 | 0.0 | 0.0 | 0.00 | 0.00 | 0.00 | 76 | 1019.8 |
| 20260504023239 | 52 | 249 | 0.0 | 0.0 | 0.00 | 0.00 | 0.00 | 76 | 1019.7 |
| 20260504022735 | 53 | 249 | 0.0 | 0.0 | 0.00 | 0.00 | 0.00 | 75 | 1019.6 |
| 20260504022232 | 53 | 252 | 0.0 | 0.0 | 0.00 | 0.00 | 0.00 | 74 | 1019.7 |
| 20260504021729 | 53 | 253 | 0.0 | 0.0 | 0.00 | 0.00 | 0.00 | 74 | 1019.5 |
| 20260504021226 | 53 | 254 | 0.0 | 0.0 | 0.00 | 0.00 | 0.00 | 72 | 1019.7 |
| 20260504020723 | 54 | 255 | 0.0 | 0.0 | 0.00 | 0.00 | 0.00 | 72 | 1019.6 |
| 20260504020220 | 54 | 251 | 0.0 | 0.0 | 0.00 | 0.00 | 0.00 | 71 | 1019.6 |
| 20260504015716 | 54 | 251 | 0.0 | 0.0 | 0.00 | 0.00 | 0.00 | 70 | 1019.2 |
| 20260504015212 | 55 | 249 | 0.0 | 0.0 | 0.00 | 0.00 | 0.00 | 69 | 1019.1 |
| 20260504014708 | 55 | 255 | 0.0 | 0.0 | 0.00 | 0.00 | 0.00 | 68 | 1019.3 |
| 20260504014205 | 55 | 257 | 0.0 | 0.0 | 0.00 | 0.00 | 0.00 | 68 | 1019.1 |
| 20260504013703 | 56 | 258 | 0.0 | 0.0 | 0.00 | 0.00 | 0.00 | 67 | 1019.0 |
| 20260504013200 | 56 | 262 | 1.0 | 1.0 | 0.00 | 0.00 | 0.00 | 67 | 1018.9 |
| 20260504012656 | 56 | 256 | 0.0 | 0.0 | 0.00 | 0.00 | 0.00 | 66 | 1018.8 |
| 20260504012155 | 57 | 260 | 0.0 | 1.0 | 0.00 | 0.00 | 0.00 | 64 | 1019.1 |
| 20260504011651 | 57 | 257 | 0.0 | 0.0 | 0.00 | 0.00 | 0.00 | 65 | 1018.6 |
| 20260504011148 | 57 | 252 | 0.0 | 0.0 | 0.00 | 0.00 | 0.00 | 62 | 1018.7 |
| 20260504010644 | 57 | 255 | 0.0 | 0.0 | 0.00 | 0.00 | 0.00 | 62 | 1018.8 |
| 20260504010139 | 58 | 255 | 0.0 | 0.0 | 0.00 | 0.00 | 0.00 | 61 | 1018.6 |
| 20260504005637 | 58 | 253 | 0.0 | 0.0 | 0.00 | 0.00 | 0.00 | 60 | 1018.8 |
| 20260504005133 | 59 | 256 | 0.0 | 0.0 | 0.00 | 0.00 | 0.00 | 59 | 1018.6 |
| 20260504004632 | 59 | 257 | 0.0 | 0.0 | 0.00 | 0.00 | 0.00 | 57 | 1018.7 |
| 20260504004128 | 59 | 257 | 0.0 | 0.0 | 0.00 | 0.00 | 0.00 | 56 | 1018.6 |
| 20260504003625 | 60 | 254 | 0.0 | 0.0 | 0.00 | 0.00 | 0.00 | 54 | 1018.7 |
| 20260504003121 | 60 | 252 | 0.0 | 0.0 | 0.00 | 0.00 | 0.00 | 54 | 1018.4 |
| 20260504002618 | 61 | 251 | 0.0 | 0.0 | 0.00 | 0.00 | 0.00 | 52 | 1018.5 |
| 20260504002116 | 61 | 249 | 0.0 | 0.0 | 0.00 | 0.00 | 0.00 | 51 | 1018.7 |
| 20260504001614 | 62 | 250 | 0.0 | 0.0 | 0.00 | 0.00 | 0.00 | 51 | 1018.5 |
| 20260504001109 | 63 | 251 | 0.0 | 1.0 | 0.00 | 0.00 | 0.00 | 51 | 1018.4 |
| 20260504000607 | 63 | 252 | 0.0 | 0.0 | 0.00 | 0.00 | 0.00 | 50 | 1018.5 |
| 20260504000104 | 63 | 254 | 0.0 | 0.0 | 0.00 | 0.00 | 0.00 | 48 | 1018.4 |
| 20260503235602 | 64 | 253 | 0.0 | 0.0 | 0.00 | 0.00 | 0.00 | 47 | 1018.7 |
| 20260503235059 | 64 | 257 | 0.0 | 0.0 | 0.00 | 0.00 | 0.00 | 47 | 1018.4 |
| 20260503234556 | 64 | 261 | 2.0 | 3.0 | 0.00 | 0.00 | 0.00 | 47 | 1018.4 |
| 20260503234054 | 65 | 257 | 0.0 | 0.0 | 0.00 | 0.00 | 0.00 | 49 | 1018.4 |
| 20260503233550 | 65 | 257 | 0.0 | 0.0 | 0.00 | 0.00 | 0.00 | 46 | 1018.3 |
| 20260503233046 | 65 | 255 | 0.0 | 0.0 | 0.00 | 0.00 | 0.00 | 44 | 1018.4 |
| 20260503232544 | 66 | 262 | 1.0 | 2.0 | 0.00 | 0.00 | 0.00 | 45 | 1018.4 |
| 20260503232041 | 66 | 259 | 0.0 | 0.0 | 0.00 | 0.00 | 0.00 | 45 | 1018.3 |
| 20260503231539 | 66 | 248 | 3.0 | 3.0 | 0.00 | 0.00 | 0.00 | 42 | 1018.4 |
| 20260503231035 | 66 | 251 | 0.0 | 0.0 | 0.00 | 0.00 | 0.00 | 43 | 1018.5 |
| 20260503230532 | 66 | 251 | 0.0 | 0.0 | 0.00 | 0.00 | 0.00 | 44 | 1018.4 |
| 20260503230030 | 67 | 243 | 1.0 | 1.0 | 0.00 | 0.00 | 0.00 | 45 | 1018.4 |
| 20260503225527 | 67 | 247 | 2.0 | 2.0 | 0.00 | 0.00 | 0.00 | 43 | 1018.3 |
| 20260503225027 | 68 | 253 | 1.0 | 2.0 | 0.00 | 0.00 | 0.00 | 43 | 1018.4 |
| 20260503224525 | 69 | 273 | 3.0 | 3.0 | 0.00 | 0.00 | 0.00 | 39 | 1018.4 |
| 20260503224022 | 70 | 258 | 0.0 | 0.0 | 0.00 | 0.00 | 0.00 | 42 | 1018.1 |
| 20260503223520 | 69 | 263 | 0.0 | 1.0 | 0.00 | 0.00 | 0.00 | 44 | 1018.3 |
| 20260503223015 | 69 | 318 | 1.0 | 2.0 | 0.00 | 0.00 | 0.00 | 42 | 1018.4 |
| 20260503222514 | 71 | 251 | 0.0 | 0.0 | 0.00 | 0.00 | 0.00 | 43 | 1018.2 |
| 20260503222012 | 71 | 250 | 2.0 | 2.0 | 0.00 | 0.00 | 0.00 | 40 | 1018.4 |
| 20260503221510 | 70 | 282 | 1.0 | 2.0 | 0.00 | 0.00 | 0.00 | 40 | 1018.3 |
| 20260503221007 | 71 | 262 | 0.0 | 1.0 | 0.00 | 0.00 | 0.00 | 38 | 1018.5 |
| 20260503220503 | 72 | 261 | 0.0 | 1.0 | 0.00 | 0.00 | 0.00 | 41 | 1018.2 |
| 20260503220000 | 72 | 282 | 2.0 | 2.0 | 0.00 | 0.00 | 0.00 | 39 | 1018.2 |
| 20260503215457 | 72 | 247 | 0.0 | 0.0 | 0.00 | 0.00 | 0.00 | 40 | 1018.6 |
| 20260503214954 | 72 | 257 | 0.0 | 0.0 | 0.00 | 0.00 | 0.00 | 42 | 1018.2 |
| 20260503214452 | 70 | 245 | 1.0 | 1.0 | 0.00 | 0.00 | 0.00 | 42 | 1018.6 |
| 20260503213949 | 72 | 246 | 0.0 | 0.0 | 0.00 | 0.00 | 0.00 | 41 | 1018.6 |
| 20260503213447 | 71 | 262 | 1.0 | 1.0 | 0.00 | 0.00 | 0.00 | 40 | 1018.6 |
| 20260503212943 | 70 | 257 | 1.0 | 1.0 | 0.00 | 0.00 | 0.00 | 42 | 1018.6 |
| 20260503212441 | 70 | 254 | 0.0 | 0.0 | 0.00 | 0.00 | 0.00 | 40 | 1018.6 |
| 20260503211938 | 69 | 83 | 6.0 | 7.0 | 0.00 | 0.00 | 0.00 | 38 | 1018.5 |
| 20260503211435 | 70 | 278 | 1.0 | 1.0 | 0.00 | 0.00 | 0.00 | 40 | 1018.7 |
| 20260503210930 | 70 | 173 | 3.0 | 5.0 | 0.00 | 0.00 | 0.00 | 36 | 1018.6 |
| 20260503210427 | 69 | 2 | 3.0 | 3.0 | 0.00 | 0.00 | 0.00 | 39 | 1018.9 |
| 20260503205922 | 72 | 47 | 6.0 | 8.0 | 0.00 | 0.00 | 0.00 | 37 | 1019.0 |
| 20260503205420 | 71 | 255 | 1.0 | 1.0 | 0.00 | 0.00 | 0.00 | 37 | 1018.7 |
| 20260503204916 | 71 | 264 | 0.0 | 1.0 | 0.00 | 0.00 | 0.00 | 39 | 1018.9 |
| 20260503204413 | 71 | 262 | 1.0 | 2.0 | 0.00 | 0.00 | 0.00 | 40 | 1018.8 |
| 20260503203910 | 68 | 258 | 0.0 | 0.0 | 0.00 | 0.00 | 0.00 | 40 | 1018.9 |
| 20260503203408 | 70 | 43 | 4.0 | 7.0 | 0.00 | 0.00 | 0.00 | 39 | 1019.1 |
| 20260503202904 | 70 | 270 | 0.0 | 1.0 | 0.00 | 0.00 | 0.00 | 41 | 1019.0 |
| 20260503202403 | 70 | 255 | 4.0 | 5.0 | 0.00 | 0.00 | 0.00 | 34 | 1019.4 |
| 20260503201901 | 68 | 266 | 2.0 | 2.0 | 0.00 | 0.00 | 0.00 | 39 | 1019.3 |
| 20260503201357 | 69 | 35 | 6.0 | 8.0 | 0.00 | 0.00 | 0.00 | 38 | 1019.5 |
| 20260503200855 | 70 | 224 | 3.0 | 5.0 | 0.00 | 0.00 | 0.00 | 39 | 1019.5 |
| 20260503200350 | 68 | 259 | 1.0 | 1.0 | 0.00 | 0.00 | 0.00 | 42 | 1019.4 |
| 20260503195848 | 70 | 29 | 5.0 | 7.0 | 0.00 | 0.00 | 0.00 | 41 | 1019.4 |
| 20260503195344 | 69 | 313 | 1.0 | 1.0 | 0.00 | 0.00 | 0.00 | 45 | 1019.5 |
| 20260503194842 | 71 | 280 | 2.0 | 2.0 | 0.00 | 0.00 | 0.00 | 40 | 1019.7 |
| 20260503194337 | 71 | 258 | 0.0 | 0.0 | 0.00 | 0.00 | 0.00 | 46 | 1019.8 |
| 20260503193834 | 69 | 226 | 0.0 | 0.0 | 0.00 | 0.00 | 0.00 | 44 | 1019.7 |
| 20260503193330 | 69 | 294 | 3.0 | 3.0 | 0.00 | 0.00 | 0.00 | 41 | 1019.9 |
| 20260503192826 | 69 | 272 | 3.0 | 3.0 | 0.00 | 0.00 | 0.00 | 42 | 1020.0 |
| 20260503192321 | 69 | 242 | 1.0 | 1.0 | 0.00 | 0.00 | 0.00 | 43 | 1020.2 |
| 20260503191818 | 68 | 286 | 1.0 | 1.0 | 0.00 | 0.00 | 0.00 | 46 | 1020.2 |
| 20260503191315 | 68 | 284 | 1.0 | 1.0 | 0.00 | 0.00 | 0.00 | 47 | 1020.4 |
| 20260503190812 | 69 | 29 | 3.0 | 5.0 | 0.00 | 0.00 | 0.00 | 42 | 1020.4 |
| 20260503190309 | 68 | 29 | 3.0 | 5.0 | 0.00 | 0.00 | 0.00 | 46 | 1020.5 |
| 20260503185806 | 69 | 13 | 1.0 | 2.0 | 0.00 | 0.00 | 0.00 | 46 | 1020.5 |
| 20260503185302 | 68 | 272 | 3.0 | 3.0 | 0.00 | 0.00 | 0.00 | 44 | 1020.5 |
| 20260503184801 | 68 | 15 | 4.0 | 5.0 | 0.00 | 0.00 | 0.00 | 44 | 1020.6 |
| 20260503184258 | 69 | 37 | 4.0 | 6.0 | 0.00 | 0.00 | 0.00 | 44 | 1020.7 |
| 20260503183754 | 68 | 267 | 0.0 | 1.0 | 0.00 | 0.00 | 0.00 | 46 | 1020.8 |
| 20260503183252 | 68 | 154 | 2.0 | 2.0 | 0.00 | 0.00 | 0.00 | 43 | 1020.6 |
| 20260503182749 | 68 | 54 | 5.0 | 8.0 | 0.00 | 0.00 | 0.00 | 42 | 1020.7 |
| 20260503182248 | 67 | 224 | 1.0 | 1.0 | 0.00 | 0.00 | 0.00 | 47 | 1021.0 |
| 20260503181744 | 67 | 236 | 1.0 | 1.0 | 0.00 | 0.00 | 0.00 | 43 | 1021.0 |
| 20260503181242 | 67 | 264 | 1.0 | 2.0 | 0.00 | 0.00 | 0.00 | 46 | 1021.2 |
| 20260503180738 | 68 | 222 | 1.0 | 2.0 | 0.00 | 0.00 | 0.00 | 43 | 1021.3 |
| 20260503180236 | 68 | 253 | 2.0 | 2.0 | 0.00 | 0.00 | 0.00 | 44 | 1021.3 |
| 20260503175732 | 68 | 23 | 4.0 | 5.0 | 0.00 | 0.00 | 0.00 | 40 | 1021.4 |
| 20260503175230 | 68 | 250 | 1.0 | 1.0 | 0.00 | 0.00 | 0.00 | 45 | 1021.5 |
| 20260503174726 | 67 | 255 | 1.0 | 1.0 | 0.00 | 0.00 | 0.00 | 44 | 1021.5 |
| 20260503174225 | 66 | 270 | 2.0 | 3.0 | 0.00 | 0.00 | 0.00 | 41 | 1021.5 |
| 20260503173725 | 66 | 251 | 2.0 | 2.0 | 0.00 | 0.00 | 0.00 | 44 | 1021.4 |
| 20260503173221 | 66 | 328 | 5.0 | 7.0 | 0.00 | 0.00 | 0.00 | 45 | 1021.5 |
| 20260503172718 | 67 | 242 | 1.0 | 1.0 | 0.00 | 0.00 | 0.00 | 48 | 1021.5 |
| 20260503172215 | 66 | 247 | 0.0 | 0.0 | 0.00 | 0.00 | 0.00 | 53 | 1021.4 |
| 20260503171711 | 66 | 269 | 2.0 | 2.0 | 0.00 | 0.00 | 0.00 | 50 | 1021.6 |
| 20260503171209 | 66 | 255 | 1.0 | 1.0 | 0.00 | 0.00 | 0.00 | 47 | 1021.7 |
| 20260503170705 | 66 | 248 | 0.0 | 0.0 | 0.00 | 0.00 | 0.00 | 48 | 1021.4 |
| 20260503170202 | 65 | 250 | 1.0 | 1.0 | 0.00 | 0.00 | 0.00 | 49 | 1021.7 |